Regional Weather Roundup
Issued by NWS Wilmington, NC

Home | Current Version | Previous Version | Text Only | Print | Product List | Glossary On
Versions: 1 2 3 4 5 6 7 8 9 10 11 12 13 14 15 16 17 18 19 20 21 22 23 24 25 26 27
000
ASUS42 KILM 250213
RWRILM
RWRILM
REGIONAL HOURLY WEATHER ROUNDUP
NATIONAL WEATHER SERVICE WILMINGTON NC
900 PM EST FRI NOV 24 2017

NOTE: "FAIR" INDICATES FEW OR NO CLOUDS BELOW 12,000 FEET WITH NO
SIGNIFICANT WEATHER AND/OR OBSTRUCTIONS TO VISIBILITY.

...............WFO WILMINGTON COUNTY WARNING AREA...............

......COASTAL NC AND SC COUNTIES......

CITY           SKY/WX    TMP DP  RH WIND       PRES   REMARKS
WILMINGTON     CLOUDY    51  38  60 N3        29.95R
N MYRTLE BEACH CLOUDY    51  35  54 N7        29.94S
MYRTLE BEACH   PTCLDY    51  35  54 N7        29.96S

......INLAND NC AND SC COUNTIES.......

CITY           SKY/WX    TMP DP  RH WIND       PRES   REMARKS
LUMBERTON      CLOUDY    37  34  89 CALM      29.97R
ELIZABETHTOWN  NOT AVBL
WHITEVILLE     PTCLDY    48  34  58 CALM      29.95S
FLORENCE       CLOUDY    41  34  76 N3        29.98R
DARLINGTON     CLEAR     37  32  82 CALM      29.98R
KINGSTREE      FAIR      39  37  93 NW3       29.96F
HARTSVILLE     FAIR      37  34  87 CALM      29.97S
BENNETTSVILLE  FAIR      37  34  87 CALM      29.98S
CONWAY         FAIR      41  41 100 CALM      29.95F
GEORGETOWN     FAIR      48  36  61 N3        29.96S
MARION         FAIR      39  36  87 CALM      29.97S

....................REST OF NORTH CAROLINA......................

.........EASTERN NC.........

CITY           SKY/WX    TMP DP  RH WIND       PRES   REMARKS
CAPE HATTERAS  CLEAR     55  51  86 VRB5      29.92F
JACKSONVILLE   CLEAR     44  39  82 NE3       29.96S
MOREHEAD CITY  CLEAR     50  46  86 N9        29.93F
KENANSVILLE    PTCLDY    39  34  81 CALM      29.96S
NEW BERN       CLEAR     46  42  86 N7        29.96F
ELIZABETH CITY CLEAR     45  43  93 N3        29.97F

.........CENTRAL NC.........

CITY           SKY/WX    TMP DP  RH WIND       PRES   REMARKS
RALEIGH DURHAM PTCLDY    34  26  72 CALM      29.98S
ROCKY MOUNT    CLEAR     35  34  96 CALM      29.99R
ROANOKE RAPIDS NOT AVBL
FAYETTEVILLE   PTCLDY    42  31  64 N3        29.96S
HOFFMAN        CLEAR     34  31  87 CALM      29.97S

.........WESTERN NC.........

CITY           SKY/WX    TMP DP  RH WIND       PRES   REMARKS
CHARLOTTE      CLEAR     44  35  70 CALM      29.98S
GREENSBORO     CLEAR     45  32  60 W3        29.96S
HICKORY        NOT AVBL
BOONE          NOT AVBL
ASHEVILLE      NOT AVBL

.....................REST OF SOUTH CAROLINA.....................

.........EASTERN SC.........

CITY           SKY/WX    TMP DP  RH WIND       PRES   REMARKS
CHARLESTON     CLEAR     48  41  76 NW6       29.95S
BEAUFORT MCAS  CLEAR     50  43  77 CALM      29.97S
HILTON HEAD    CLEAR     50  45  81 CALM      29.97S

.........CENTRAL SC.........

CITY           SKY/WX    TMP DP  RH WIND       PRES   REMARKS
COLUMBIA       CLEAR     41  39  93 W5        29.98R
ORANGEBURG     CLEAR     42  39  89 CALM      29.98R
SUMTER SHAW    CLEAR     41  35  78 CALM      29.95S

.........WESTERN SC.........

CITY           SKY/WX    TMP DP  RH WIND       PRES   REMARKS
GREENVILLE     NOT AVBL
ROCK HILL      CLEAR     40  35  83 CALM      29.98R
ANDERSON       CLEAR     42  39  89 CALM      29.98S
CLEMSON        NOT AVBL
GREENWOOD      CLEAR     39  36  89 CALM      30.00R


...................COASTAL AND OFFSHORE REPORTS..................

................LOCAL PIERS AND NC RESERVE................


STATION/POSITION TIME  SKY/WX   TEMP    WIND        PRES    VSBY
                                AIR SEA DIR/SP/G
                 (UTC)          (F)     (DEG/KT/KT) (MB)    (MI)
JOHNY MRCER PIER 0142            53 61   10/  9/ 11 1013.5S
NC RESRV MASNBRO 0045            53      40/  2     1013.0
OCEAN CREST PIER NOT AVBL
SPRINGMAID  PIER 0142                               1013.3S


................COASTAL AND OFFSHORE BUOYS................


STATION/POSITION TIME  SKY/WX   TEMP    WIND        PRES    VSBY
                                AIR SEA DIR/SP/G
                 (UTC)          (F)     (DEG/KT/KT) (MB)    (MI)
DIMNDSHOAL 41025 0200            65 70   10/ 17/ 21 1012.5
CAPE LOOKOUT     0200                    10/ 11/ 14 1013.3F
ONSLOW BAY 41036 NOT AVBL
ONSLOW BAY 41064 0108            58 66   50/ 16/ 21 1013.0F
ONSLOW BAY 41159 0200               66                N/A
WVE H/P(F/S)=  7/ 9 SWL H/P/D(F/S/D)=  2/110/11

MASNBO INL 41110 0159               63                N/A
WVE H/P(F/S)=  5/ 7 SWL H/P/D(F/S/D)=  2/120/11

WILM HARBR 41108 0200               61                N/A
WVE H/P(F/S)=  4/10

27SE WRITB 41037 0108            60 72   30/ 21/ 27 1012.7F
FRYING PAN 41013 0150            62 72   20/ 21/ 25 1012.1R
WVE H/P(F/S)=  8/ 8 SWL H/P/D(F/S/D)=  3/120/10

SUNST NRSH 41024 0108            53 60   30/ 10/ 14 1013.4F
CAPRS NRSH 41029 0108            54 60  360/ 12/ 17 1013.6S
EDISTO     41004 0150            62 73  360/ 17/ 23 1012.7R
WVE H/P(F/S)=  7/10 SWL H/P/D(F/S/D)=  3/100/10



..........OFFSHORE BUOYS BEYOND 100 NM OFFSHORE...........
.....IN A TRIANGLE---HAT TO BERMUDA TO BAHAMAS TO HAT.....


STATION/POSITION TIME  SKY/WX   TEMP    WIND        PRES    VSBY
                                AIR SEA DIR/SP/G
                 (UTC)          (F)     (DEG/KT/KT) (MB)    (MI)
150E HAT   41001 NOT AVBL
W BERMUDA  41048 0150            75 75  170/ 16/ 19 1011.8F
WVE H/P(F/S)=  7/ 8 SWL H/P/D(F/S/D)=  3/ 90/ 8

ATLANTIC S 41049 0150            77 79  110/  6/  8 1018.0F
WVE H/P(F/S)=  4/ 9 SWL H/P/D(F/S/D)=  3/100/ 9

E BAHAMAS  41046 0150            80 81  140/ 10/ 14 1016.9R
WVE H/P(F/S)=  4/ 8 SWL H/P/D(F/S/D)=  3/100/ 8

NE BAHAMAS 41047 0150            74     210/ 12/ 14 1014.1F
WVE H/P(F/S)=  5/ 9 SWL H/P/D(F/S/D)=  3/110/ 9

120E CANVRL41010 NOT AVBL

END




USA.gov is the U.S. government's official web portal to all federal, state and local government web resources and services.